Home   Weather   Flint   Past weeks

Flag for USA Past Weather in Flint, Michigan, USA — Yesterday and Last 2 Weeks

44 °F


Feels Like: 39 °F
Forecast: 35 / 51 °F
Wind: 9 mph from North

Location: Bishop International Airport

Current Time: Oct 22, 2016 at 1:31:49 AM

Latest Report: Oct 22, 2016 at 12:53 AM

Visibility: 10 mi

Pressure: 30.05 "Hg

Humidity: 65%

Dew Point: 33 °F

Location of FlintLocation

Past Weather in Flint — Graph


Flint Temperature Yesterday

Maximum temperature yesterday: 51 °F (at 2:53 PM)
Minimum temperature yesterday: 44 °F (at 5:53 AM)
Average temperature yesterday: 47 °F

High & Low Weather Summary for the Past Weeks

High80 °F (Oct 7, 2:53 PM)100% (Oct 13, 10:53 PM)30.49 "Hg (Oct 13, 10:53 PM)
Low34 °F (Oct 9, 5:53 AM)44% (Oct 19, 3:53 PM)29.53 "Hg (Oct 18, 4:53 AM)
Average56 °F78%30.09 "Hg
* Reported Oct 6 11:53 PM — Oct 21 11:53 PM, Flint, Weather by CustomWeather, © 2016

Note: Actual official high and low records may vary slightly from our data, if they occured in-between our weather recording intervals... More about our weather records


Flint Weather History for the Previous 24 Hours

Scroll right to see more
Time TempWeatherWind HumidityBarometerVisibility
11:53 PM
Fri, Oct 21
44 °FOvercast.8 mph65%30.06 "Hg10 mi
10:53 PM45 °FOvercast.8 mph60%30.06 "Hg10 mi
9:53 PM45 °FOvercast.10 mph58%30.07 "Hg10 mi
8:53 PM46 °FOvercast.8 mph61%30.08 "Hg10 mi
7:53 PM47 °FOvercast.9 mph71%30.08 "Hg10 mi
6:53 PM48 °FOvercast.9 mph68%30.08 "Hg10 mi
5:53 PM48 °FOvercast.8 mph66%30.08 "Hg10 mi
4:53 PM49 °FOvercast.10 mph61%30.07 "Hg10 mi
3:53 PM50 °FOvercast.13 mph63%30.06 "Hg10 mi
2:53 PM51 °FOvercast.17 mph66%30.06 "Hg10 mi
1:53 PM49 °FMostly cloudy.17 mph69%30.07 "Hg10 mi
12:53 PM48 °FLight rain. Cloudy.21 mph80%30.08 "Hg8 mi
11:53 AM48 °FMostly cloudy.14 mph83%30.07 "Hg10 mi
10:53 AM48 °FOvercast.10 mph80%30.06 "Hg10 mi
9:53 AM46 °FOvercast.9 mph83%30.06 "Hg10 mi
8:53 AM44 °FMostly cloudy.10 mph79%30.06 "Hg10 mi
7:53 AM44 °FOvercast.9 mph76%30.06 "Hg10 mi
6:53 AM44 °FOvercast.10 mph73%30.06 "Hg10 mi
5:53 AM44 °FOvercast.13 mph76%30.04 "Hg10 mi
4:53 AM45 °FOvercast.13 mph76%30.03 "Hg10 mi
3:53 AM46 °FOvercast.10 mph77%30.07 "Hg10 mi
2:53 AM47 °FMostly cloudy.15 mph74%30.06 "Hg10 mi
1:53 AM48 °FOvercast.16 mph71%30.06 "Hg10 mi
Weather by CustomWeather, © 2016

See weather overviewHow to use our weather pages